Location: Bailleul
(50.3375°N, 2.8513°E)
Time: 09:49:18
(UTC+00:00)

ALOS 2 - Pass Details

Date: 16 June 2021
Orbit: 630 x 632 km, 97.9° (Epoch: 01 August)

Event Time Altitude Azimuth Distance (km) Brightness Sun altitude
Exits shadow 23:49:27 24° 215° (SW) 1,311 3.8 -16.3°
Maximum altitude 23:51:24 36° 263° (W) 1,000 3.5 -16.3°
Drops below altitude 10° 23:55:30 10° 331° (NNW) 2,026 6.1 -16.3°
Sets 23:57:52 0° 340° (NNW) 2,939 7.3 -16.3°
